This demonstration page uses our WeatherBlox Daily Observations layout. Learn more.

38.89511, -77.03637

Hourly Observations for March 30, 2015

Temp ( °F °C ) Dew Point ( °F °C ) Humidity (%) Winds ( mph kmh ) Pressure ( in mb ) Visibility ( mi km ) Precip ( " mm )
12:52 am 00:52 Cloudy 45 7 19 -7 37 37 S 14 22 30.09 1019 10 16.09344 0 0
1:36 am 01:36 Cloudy 43 6 21 -6 42 42 SW 18 30 30.12 1020 5 8.04672 0 0
1:50 am 01:50 Cloudy with Light Rain 43 6 28 -2 57 57 S 18 30 30.09 1019 6 9.656064 0 0
1:52 am 01:52 Cloudy with Light Rain 43 6 28 -2 57 57 S 20 31 30.09 1019 6 9.656064 0.01 0.254
1:59 am 01:59 Cloudy 43 6 28 -2 57 57 S 17 28 30.06 1018 10 16.09344 0 0
2:52 am 02:52 Cloudy 45 7 25 -4 46 46 S 14 22 30.03 1017 10 16.09344 0.001 0.001
3:52 am 03:52 Cloudy 45 7 21 -6 39 39 SSW 9 15 30.03 1017 10 16.09344 0.001 0.001
4:12 am 04:12 Cloudy 45 7 19 -7 37 37 S 16 26 30.03 1017 10 16.09344 0 0
4:45 am 04:45 Cloudy with Light Snow 43 6 27 -3 53 53 SSW 9 15 30 1016 6 9.656064 0.01 0.254
4:52 am 04:52 Cloudy with Light Rain/Snow 43 6 27 -3 53 53 S 14 22 30 1016 8 12.874752 0.01 0.254
5:52 am 05:52 Cloudy 45 7 27 -3 49 49 S 14 22 29.97 1015 10 16.09344 0.001 0.001
6:52 am 06:52 Cloudy 45 7 23 -5 42 42 SSW 13 20 29.94 1014 10 16.09344 0 0
7:52 am 07:52 Cloudy 46 8 25 -4 43 43 S 12 19 29.94 1014 10 16.09344 0 0
8:52 am 08:52 Cloudy 48 9 23 -5 37 37 SW 10 17 29.94 1014 10 16.09344 0 0
9:52 am 09:52 Cloudy 50 10 23 -5 35 35 SW 10 17 29.91 1013 10 16.09344 0 0
10:52 am 10:52 Cloudy 54 12 27 -3 35 35 SW 10 17 29.91 1013 10 16.09344 0 0
11:52 am 11:52 Cloudy 55 13 28 -2 36 36 W 8 13 29.91 1013 10 16.09344 0 0
12:52 pm 12:52 Mostly Cloudy 57 14 30 -1 36 36 N 6 9 29.91 1013 10 16.09344 0 0
1:52 pm 13:52 Mostly Cloudy 63 17 32 0 32 32 WNW 13 20 29.88 1012 10 16.09344 0 0
2:52 pm 14:52 Partly Cloudy 64 18 28 -2 26 26 NNW 16 26 29.85 1011 10 16.09344 0 0
3:52 pm 15:52 Partly Cloudy 64 18 27 -3 24 24 NW 13 20 29.85 1011 10 16.09344 0 0
4:52 pm 16:52 Partly Cloudy 63 17 25 -4 24 24 W 13 20 29.85 1011 10 16.09344 0 0
5:52 pm 17:52 Partly Cloudy 64 18 23 -5 21 21 NW 12 19 29.85 1011 10 16.09344 0 0
6:52 pm 18:52 Mostly Sunny 63 17 23 -5 22 22 WNW 17 28 29.88 1012 10 16.09344 0 0
7:52 pm 19:52 Mostly Clear 61 16 21 -6 22 22 NW 10 17 29.91 1013 10 16.09344 0 0
8:52 pm 20:52 Mostly Clear 57 14 21 -6 25 25 NNW 14 22 29.94 1014 10 16.09344 0 0
9:52 pm 21:52 Mostly Clear 55 13 21 -6 26 26 NW 5 7 29.97 1015 10 16.09344 0 0
10:52 pm 22:52 Mostly Cloudy 54 12 21 -6 28 28 WSW 3 6 29.97 1015 10 16.09344 0 0
11:52 pm 23:52 Mostly Cloudy 52 11 25 -4 35 35 S 6 9 29.97 1015 10 16.09344 0 0

Powered by AerisWeather